Orr, MN

7:36 PM CDT on April 28, 2017 (GMT -0500)
Orr Regional

Weather History for KORB - January, 2013

Change the Weather History Date:

Tuesday, January 8, 2013

  Actual Average Record
Temperature  
Mean Temperature 24 °F -  
Max Temperature 32 °F 13 °F 44 °F (2003)
Min Temperature 15 °F 0 °F -27 °F (2004)
Degree Days  
Heating Degree Days 42    
Moisture  
Dew Point 20 °F    
Average Humidity 81    
Maximum Humidity 93    
Minimum Humidity 69    
Precipitation  
Precipitation 0.00 in - - ()
Sea Level Pressure  
Sea Level Pressure 29.75 in    
Wind  
Wind Speed 4 mph (SSE)    
Max Wind Speed 14 mph    
Max Gust Speed 20 mph    
Visibility 9 miles    
Events Snow    
Averages and records for this station are not official NWS values.
T = Trace of Precipitation, MM = Missing Value Source: NWS Daily Summary

Daily Weather History Graph

Daily Weather History Graph

Search for Another Location

Airport or City:

Trip Planner

Search our weather history database for the weather conditions in past years. The results will help you decide how hot, cold, wet, or windy it might be!

Date:

Astronomy

Jan. 08, 2013 Rise Set
Actual Time 7:59 AM CST 4:37 PM CST
Civil Twilight 7:24 AM CST 5:12 PM CST
Nautical Twilight 6:45 AM CST 5:51 PM CST
Astronomical Twilight 6:07 AM CST 6:29 PM CST
Moon 4:32 AM CST (1/8) 1:40 PM CST (1/8)
Length of Visible Light 9h 48m
Length of Day
8h 37m
Waning Crescent, 13% of the Moon is Illuminated
Jan 8
Waning Crescent
Jan 11
New
Jan 18
First Quarter
Jan 26
Full
Feb 3
Last Quarter

Hourly Weather History & Observations

Time (CST) Temp. Windchill Dew Point Humidity Pressure Visibility Wind Dir Wind Speed Gust Speed Precip Events Conditions
12:13 AM 28.4 °F - 21.2 °F 74% 29.81 in 10.0 mi Calm Calm - N/A   Overcast
12:33 AM 28.4 °F 23.3 °F 21.2 °F 74% 29.81 in 10.0 mi WSW 4.6 mph - N/A   Overcast
12:53 AM 28.4 °F 24.6 °F 21.2 °F 74% 29.81 in 10.0 mi WSW 3.5 mph - N/A   Overcast
1:13 AM 28.4 °F 24.6 °F 21.2 °F 74% 29.81 in 10.0 mi West 3.5 mph - N/A   Overcast
1:33 AM 28.4 °F - 19.4 °F 69% 29.81 in 10.0 mi Calm Calm - N/A   Overcast
1:53 AM 26.6 °F 22.6 °F 21.2 °F 80% 29.82 in 10.0 mi SW 3.5 mph - N/A   Overcast
2:13 AM 26.6 °F - 19.4 °F 74% 29.83 in 10.0 mi Calm Calm - N/A   Overcast
2:33 AM 26.6 °F - 21.2 °F 80% 29.83 in 10.0 mi Calm Calm - N/A   Overcast
2:53 AM 26.6 °F - 21.2 °F 80% 29.84 in 10.0 mi Calm Calm - N/A   Overcast
3:13 AM 24.8 °F 20.5 °F 19.4 °F 80% 29.83 in 10.0 mi South 3.5 mph - N/A   Mostly Cloudy
3:33 AM 24.8 °F 20.5 °F 19.4 °F 80% 29.83 in 10.0 mi South 3.5 mph - N/A   Scattered Clouds
3:53 AM 21.2 °F 16.4 °F 19.4 °F 93% 29.83 in 10.0 mi South 3.5 mph - N/A   Clear
4:13 AM 21.2 °F 16.4 °F 17.6 °F 86% 29.84 in 10.0 mi South 3.5 mph - N/A   Clear
4:33 AM 19.4 °F 14.3 °F 17.6 °F 93% 29.84 in 10.0 mi South 3.5 mph - N/A   Clear
4:53 AM 19.4 °F 14.3 °F 15.8 °F 86% 29.85 in 10.0 mi South 3.5 mph - N/A   Clear
5:13 AM 17.6 °F 12.3 °F 15.8 °F 93% 29.84 in 10.0 mi South 3.5 mph - N/A   Clear
5:33 AM 17.6 °F 12.3 °F 15.8 °F 93% 29.84 in 10.0 mi South 3.5 mph - N/A   Clear
5:53 AM 17.6 °F - 15.8 °F 93% 29.84 in 10.0 mi Calm Calm - N/A   Clear
6:13 AM 17.6 °F - 14.0 °F 86% 29.85 in 10.0 mi Calm Calm - N/A   Clear
6:34 AM 15.8 °F - 12.2 °F 86% 29.86 in 10.0 mi Calm Calm - N/A   Clear
6:53 AM 15.8 °F 10.2 °F 12.2 °F 86% 29.87 in 10.0 mi SSE 3.5 mph - N/A   Clear
7:33 AM 15.8 °F 10.2 °F 12.2 °F 86% 29.85 in 10.0 mi ESE 3.5 mph - N/A   Clear
7:53 AM 15.8 °F 10.2 °F 12.2 °F 86% 29.84 in 10.0 mi East 3.5 mph - N/A   Clear
8:13 AM 15.8 °F 10.2 °F 12.2 °F 86% 29.84 in 10.0 mi ESE 3.5 mph - N/A   Clear
8:33 AM 15.8 °F 10.2 °F 12.2 °F 86% 29.85 in 10.0 mi SE 3.5 mph - N/A   Clear
8:53 AM 17.6 °F - 14.0 °F 86% 29.84 in 10.0 mi Calm Calm - N/A   Clear
9:13 AM 17.6 °F 10.7 °F 15.8 °F 93% 29.86 in 10.0 mi SSE 4.6 mph - N/A   Clear
9:33 AM 17.6 °F 12.3 °F 15.8 °F 93% 29.85 in 10.0 mi SE 3.5 mph - N/A   Clear
9:54 AM 19.4 °F 12.8 °F 17.6 °F 93% 29.85 in 10.0 mi SSE 4.6 mph - N/A   Clear
10:13 AM 21.2 °F 13.6 °F 17.6 °F 86% 29.85 in 10.0 mi SSE 5.8 mph - N/A   Clear
10:33 AM 23.0 °F 15.8 °F 19.4 °F 86% 29.84 in 10.0 mi SE 5.8 mph - N/A   Clear
10:53 AM 24.8 °F 16.9 °F 19.4 °F 80% 29.84 in 10.0 mi SSE 6.9 mph - N/A   Clear
11:13 AM 26.6 °F 19.1 °F 19.4 °F 74% 29.82 in 10.0 mi SE 6.9 mph - N/A   Clear
11:33 AM 26.6 °F 18.2 °F 19.4 °F 74% 29.81 in 10.0 mi SE 8.1 mph - N/A   Clear
11:53 AM 26.6 °F 20.0 °F 19.4 °F 74% 29.82 in 10.0 mi South 5.8 mph - N/A   Clear
12:13 PM 26.6 °F 19.1 °F 19.4 °F 74% 29.80 in 10.0 mi SSE 6.9 mph - N/A   Clear
12:33 PM 28.4 °F 20.4 °F 21.2 °F 74% 29.80 in 10.0 mi South 8.1 mph - N/A   Clear
12:53 PM 28.4 °F 21.2 °F 21.2 °F 74% 29.78 in 10.0 mi SSE 6.9 mph - N/A   Clear
1:13 PM 28.4 °F 20.4 °F 21.2 °F 74% 29.76 in 10.0 mi SE 8.1 mph - N/A   Scattered Clouds
1:33 PM 28.4 °F 20.4 °F 21.2 °F 74% 29.75 in 10.0 mi SSE 8.1 mph - N/A   Scattered Clouds
1:53 PM 30.2 °F 23.4 °F 21.2 °F 69% 29.74 in 10.0 mi SSE 6.9 mph - N/A   Scattered Clouds
2:14 PM 30.2 °F 23.4 °F 21.2 °F 69% 29.74 in 10.0 mi SSE 6.9 mph - N/A   Scattered Clouds
2:34 PM 30.2 °F 25.4 °F 21.2 °F 69% 29.72 in 10.0 mi SE 4.6 mph - N/A   Scattered Clouds
2:54 PM 30.2 °F 25.4 °F 21.2 °F 69% 29.71 in 10.0 mi SE 4.6 mph - N/A   Mostly Cloudy
3:13 PM 30.2 °F 25.4 °F 21.2 °F 69% 29.70 in 10.0 mi SE 4.6 mph - N/A   Mostly Cloudy
3:33 PM 30.2 °F - 21.2 °F 69% 29.68 in 10.0 mi Calm Calm - N/A   Mostly Cloudy
3:53 PM 30.2 °F 25.4 °F 21.2 °F 69% 29.66 in 10.0 mi SE 4.6 mph - N/A   Overcast
4:13 PM 30.2 °F 23.4 °F 21.2 °F 69% 29.66 in 10.0 mi SE 6.9 mph - N/A   Overcast
4:33 PM 30.2 °F 26.7 °F 21.2 °F 69% 29.64 in 10.0 mi ESE 3.5 mph - N/A   Overcast
4:53 PM 30.2 °F 24.3 °F 21.2 °F 69% 29.63 in 10.0 mi SE 5.8 mph - N/A   Overcast
5:13 PM 30.2 °F 23.4 °F 21.2 °F 69% 29.63 in 10.0 mi SSE 6.9 mph - N/A   Overcast
5:33 PM 30.2 °F 23.4 °F 21.2 °F 69% 29.62 in 10.0 mi SE 6.9 mph - N/A   Overcast
5:53 PM 30.2 °F 22.6 °F 21.2 °F 69% 29.62 in 10.0 mi SSE 8.1 mph - N/A   Overcast
6:33 PM 28.4 °F 17.5 °F 23.0 °F 80% 29.61 in 3.0 mi SSE 13.8 mph 19.6 mph N/A Snow Light Snow
6:53 PM 28.4 °F 19.7 °F 24.8 °F 86% 29.60 in 2.0 mi SSE 9.2 mph - N/A Snow Light Snow
7:13 PM 28.4 °F 19.7 °F 26.6 °F 93% 29.61 in 2.0 mi South 9.2 mph 16.1 mph N/A Snow Light Snow
7:33 PM 28.4 °F 20.4 °F 26.6 °F 93% 29.60 in 2.0 mi South 8.1 mph - N/A Snow Light Snow
7:53 PM 28.4 °F 21.2 °F 26.6 °F 93% 29.60 in 3.0 mi South 6.9 mph - N/A Snow Light Snow
8:13 PM 28.4 °F 20.4 °F 24.8 °F 86% 29.60 in 3.0 mi South 8.1 mph - N/A Snow Light Snow
8:33 PM 28.4 °F 20.4 °F 24.8 °F 86% 29.59 in 5.0 mi South 8.1 mph - N/A Snow Light Snow
8:53 PM 32.0 °F 27.5 °F 24.8 °F 75% 29.58 in 10.0 mi SSW 4.6 mph - N/A   Scattered Clouds
9:13 PM 28.4 °F 21.2 °F 24.8 °F 86% 29.58 in 10.0 mi SSW 6.9 mph - N/A   Clear
9:33 PM 28.4 °F 22.2 °F 24.8 °F 86% 29.58 in 7.0 mi SW 5.8 mph - N/A   Clear
9:53 PM 28.4 °F 23.3 °F 24.8 °F 86% 29.57 in 7.0 mi SW 4.6 mph - N/A   Scattered Clouds
10:13 PM 28.4 °F 23.3 °F 24.8 °F 86% 29.57 in 10.0 mi SSW 4.6 mph - N/A   Mostly Cloudy
10:33 PM 28.4 °F 24.6 °F 24.8 °F 86% 29.58 in 10.0 mi SW 3.5 mph - N/A   Overcast
10:53 PM 28.4 °F 23.3 °F 24.8 °F 86% 29.58 in 10.0 mi SW 4.6 mph - N/A   Overcast
11:33 PM 28.4 °F 23.3 °F 24.8 °F 86% 29.58 in 10.0 mi SSW 4.6 mph - N/A   Overcast